Location: Wildlife_Club
(35.6000°N, 81.4330°W)
Time: 19:24:13
(UTC-04:00)

S-56A Canister/Altair - All Passes

Search period start: 20 June 2019 00:00
Search period end: 30 June 2019 00:00
Orbit: 633 x 2499 km, 38.9° (Epoch: 19 June)

Date Brightness Start Highest point End Pass type
(mag) Time Alt. Az. Time Alt. Az. Time Alt. Az.
20 Jun - 14:28:17 10° S 14:35:05 17° SE 14:40:41 10° ESE daylight
20 Jun - 16:29:51 10° SW 16:40:00 48° SSE 16:46:47 10° E daylight
20 Jun - 18:35:57 10° WSW 18:44:32 81° NNW 18:50:12 10° ENE daylight
20 Jun - 20:42:36 10° WNW 20:48:54 64° N 20:53:34 10° E daylight
20 Jun - 22:47:47 10° WNW 22:52:37 55° SSW 22:56:56 10° SE visible
21 Jun - 13:55:46 10° S 14:02:02 15° SE 14:07:22 10° ESE daylight
21 Jun - 15:56:26 10° SW 16:07:04 45° SSE 16:14:16 10° E daylight
21 Jun - 18:02:23 10° WSW 18:11:45 87° NNW 18:17:50 10° ENE daylight
21 Jun - 20:09:21 10° W 20:16:15 64° N 20:21:09 10° E daylight
21 Jun - 22:14:54 10° WNW 22:20:09 65° SSW 22:24:32 10° ESE visible
22 Jun - 00:21:26 10° WSW 00:23:05 12° SW 00:24:44 10° SSW visible
22 Jun - 13:23:31 10° SSE 13:28:57 14° SE 13:33:44 10° ESE daylight
22 Jun - 15:23:03 10° SSW 15:34:04 42° SSE 15:41:42 10° E daylight
22 Jun - 17:28:47 10° WSW 17:38:55 88° SSE 17:45:26 10° ENE daylight
22 Jun - 19:36:00 10° W 19:43:33 65° N 19:48:45 10° E daylight
22 Jun - 21:41:56 10° WNW 21:47:39 75° SSW 21:52:09 10° ESE visible
22 Jun - 23:47:58 10° WSW 23:50:36 15° SW 23:53:10 10° S visible
23 Jun - 12:51:48 10° SSE 12:55:49 12° SE 12:59:32 10° ESE daylight
23 Jun - 14:49:42 10° SSW 15:01:00 39° SSE 15:09:02 10° E daylight
23 Jun - 16:55:08 10° WSW 17:06:01 83° SSE 17:13:02 10° ENE daylight
23 Jun - 19:02:31 10° W 19:10:49 67° N 19:16:21 10° E daylight
23 Jun - 21:08:52 10° WNW 21:15:06 85° SSW 21:19:46 10° ESE visible
23 Jun - 23:14:44 10° W 23:18:09 19° SW 23:21:19 10° S visible
24 Jun - 14:16:25 10° SSW 14:27:53 36° SE 14:36:17 10° E daylight
24 Jun - 16:21:26 10° WSW 16:33:04 77° SSE 16:40:35 10° ENE daylight
24 Jun - 18:28:57 10° W 18:38:01 69° N 18:43:58 10° ENE daylight
24 Jun - 20:35:42 10° WNW 20:42:31 87° NNE 20:47:23 10° ESE daylight
24 Jun - 22:41:35 10° W 22:45:43 24° SW 22:49:21 10° SSE visible
25 Jun - 13:43:12 10° SSW 13:54:43 33° SE 14:03:27 10° E daylight
25 Jun - 15:47:45 10° WSW 16:00:02 73° SSE 16:08:05 10° ENE daylight
25 Jun - 17:55:16 10° W 18:05:10 72° N 18:11:33 10° ENE daylight
25 Jun - 20:02:25 10° WNW 20:09:53 81° NNE 20:15:01 10° ESE daylight
25 Jun - 22:08:26 10° W 22:13:17 30° SW 22:17:17 10° SSE visible
26 Jun - 13:10:05 10° SSW 13:21:30 30° SE 13:30:29 10° E daylight
26 Jun - 15:14:04 10° SW 15:26:56 68° SSE 15:35:32 10° ENE daylight
26 Jun - 17:21:30 10° W 17:32:15 75° N 17:39:07 10° ENE daylight
26 Jun - 19:29:02 10° WNW 19:37:11 77° NNE 19:42:37 10° E daylight
26 Jun - 21:35:15 10° W 21:40:50 38° SW 21:45:10 10° SSE visible
27 Jun - 12:37:06 10° S 12:48:16 28° SE 12:57:23 10° E daylight
27 Jun - 14:40:25 10° SW 14:53:46 64° SSE 15:02:55 10° ENE daylight
27 Jun - 16:47:42 10° W 16:59:15 78° NNW 17:06:40 10° ENE daylight
27 Jun - 18:55:31 10° WNW 19:04:25 75° N 19:10:14 10° E daylight
27 Jun - 21:02:00 10° WNW 21:08:20 46° SSW 21:13:00 10° SE daylight
28 Jun - 12:04:15 10° S 12:15:00 25° SE 12:24:06 10° E daylight
28 Jun - 14:06:50 10° SW 14:20:32 60° SSE 14:30:15 10° ENE daylight
28 Jun - 16:13:50 10° WSW 16:26:11 82° NNW 16:34:11 10° ENE daylight
28 Jun - 18:21:54 10° WNW 18:31:34 73° N 18:37:49 10° E daylight
28 Jun - 20:28:42 10° WNW 20:35:49 56° SSW 20:40:48 10° SE daylight
29 Jun - 11:31:37 10° S 11:41:44 22° SE 11:50:38 10° E daylight
29 Jun - 13:33:19 10° SW 13:47:13 56° SSE 13:57:29 10° ENE daylight
29 Jun - 15:39:58 10° WSW 15:53:02 85° NNW 16:01:39 10° ENE daylight
29 Jun - 17:48:11 10° W 17:58:40 72° N 18:05:23 10° E daylight
29 Jun - 19:55:19 10° WNW 20:03:13 65° SSW 20:08:33 10° SE daylight
29 Jun - 22:03:18 10° WSW 22:05:51 13° SW 22:08:10 10° SSW visible
